Location: North Evanston
(42.0634°N, 87.6976°W)
Time: 20:40:26
(UTC+00:00)

Injun/Solrad 3 - Pass Details

Date: 14 May 2026
Orbit: 867 x 989 km, 66.8° (Epoch: 6 June)

Event Time Altitude Azimuth Distance (km) Brightness Sun altitude
Rises 22:15:18 0° 230° (SW) 3,510 11.6 29.4°
Reaches altitude 10° 22:17:53 10° 237° (WSW) 2,590 11.3 28.9°
Maximum altitude 22:23:37 44° 308° (NW) 1,274 9.8 27.8°
Drops below altitude 10° 22:29:33 10° 20° (NNE) 2,685 10.2 26.7°
Sets 22:32:18 0° 27° (NNE) 3,652 10.8 26.2°
